{"data":{"norad_id":64328,"epoch":"2026-05-25T02:33:05.071680Z","epoch_age_seconds":72672,"freshness":"FRESH","line1":"1 64328U 25124M   26145.10630870  .00176704  00000+0  13484-2 0  9996","line2":"2 64328  42.9989 288.5167 0000470 353.2203   6.8658 15.70894121 54855","mean_motion":15.70894121,"eccentricity":4.7e-5,"inclination_deg":42.9989,"raan_deg":288.5167,"arg_perigee_deg":353.2203,"mean_anomaly_deg":6.8658,"bstar":0.0013484,"rev_number":5485,"period_min":91.667540208459,"perigee_km":356.02385762603,"apogee_km":356.65689849957,"semimajor_km":6734.4773780628,"source":"CELESTRAK","updated_at":"2026-05-25T13:38:20.396058Z"}}